FW0052 Weather Reports


Display with metric or nautical units.
time (UTC)temp
F
wind
direction
speed
MPH
gust
MPH
rain 1hr
in
rain 24hr
in
rain mn
in
humidity
%
barometer
mb
20181019030017 53 134 1.0 10.0 0.00 0.00 0.00 70 1018.9
20181019023017 53 125 4.0 10.0 0.00 0.00 0.00 69 1018.9
20181019020016 53 117 4.0 12.0 0.00 0.00 0.00 69 1018.8
20181019013016 53 118 6.0 12.0 0.00 0.00 0.00 68 1018.4
20181019010017 54 112 4.0 12.0 0.00 0.00 0.00 67 1018.2
20181019003017 54 98 5.0 12.0 0.00 0.00 0.00 66 1018.2
20181019000017 55 12 2.0 10.0 0.00 0.00 0.00 64 1018.2
20181018233016 56 13 3.0 11.0 0.00 0.00 0.00 63 1018.3
20181018230016 56 49 2.0 11.0 0.00 0.00 0.00 62 1018.4
20181018223016 56 91 2.0 11.0 0.00 0.00 0.00 62 1018.7
20181018220017 57 45 2.0 11.0 0.00 0.00 0.00 60 1018.9
20181018213016 57 137 2.0 11.0 0.00 0.00 0.00 60 1019.0
20181018210016 56 140 2.0 14.0 0.00 0.00 0.00 59 1019.2
20181018203016 57 127 6.0 15.0 0.00 0.00 0.00 59 1019.5
20181018200016 55 112 7.0 17.0 0.00 0.00 0.00 62 1019.9
20181018193016 55 119 9.0 18.0 0.00 0.00 0.00 61 1020.6
20181018190015 56 103 10.0 20.0 0.00 0.00 0.00 61 1020.9
20181018183015 54 45 13.0 21.0 0.00 0.00 0.00 63 1021.3
20181018180016 53 56 12.0 25.0 0.00 0.00 0.00 64 1021.4
20181018173015 51 116 13.0 25.0 0.00 0.00 0.00 65 1021.6
20181018170015 51 129 15.0 24.0 0.00 0.00 0.00 66 1021.7
20181018163016 50 116 9.0 20.0 0.00 0.00 0.00 67 1021.9
20181018160015 50 112 12.0 19.0 0.00 0.00 0.00 67 1022.1
20181018153015 49 113 10.0 19.0 0.00 0.00 0.00 69 1022.0
20181018150015 49 113 10.0 18.0 0.00 0.00 0.00 70 1021.4
20181018143015 48 107 11.0 18.0 0.00 0.00 0.00 72 1021.1
20181018140015 47 112 11.0 22.0 0.00 0.00 0.00 73 1021.1
20181018133015 47 119 11.0 22.0 0.00 0.00 0.00 73 1020.9
20181018130015 47 121 13.0 23.0 0.00 0.00 0.00 73 1020.9
20181018123015 47 116 10.0 23.0 0.00 0.00 0.00 74 1021.2
20181018120015 47 101 7.0 22.0 0.00 0.00 0.00 75 1021.5
20181018113017 47 107 10.0 22.0 0.00 0.00 0.00 74 1021.3
20181018110016 48 113 9.0 17.0 0.00 0.00 0.00 72 1021.6
20181018103016 49 115 2.0 16.0 0.00 0.00 0.00 71 1021.9
20181018100017 49 122 9.0 19.0 0.00 0.00 0.00 70 1022.0
20181018093017 49 116 9.0 20.0 0.00 0.00 0.00 70 1022.2
20181018090017 49 118 11.0 21.0 0.00 0.00 0.00 70 1022.4
20181018083017 49 116 13.0 23.0 0.00 0.00 0.00 70 1022.7
20181018080016 49 114 13.0 23.0 0.00 0.00 0.00 70 1022.6
20181018073016 48 114 11.0 21.0 0.00 0.00 0.00 72 1022.8
20181018070016 48 114 12.0 24.0 0.00 0.00 0.00 72 1022.9
20181018063017 48 113 13.0 26.0 0.00 0.00 0.00 72 1023.2
20181018060016 48 105 14.0 27.0 0.00 0.00 0.00 72 1023.2
20181018053017 48 101 14.0 27.0 0.00 0.00 0.00 70 1023.1
20181018050017 48 100 15.0 32.0 0.00 0.00 0.00 69 1023.1
20181018043017 48 103 15.0 33.0 0.00 0.00 0.00 69 1023.1
20181018040017 48 101 16.0 33.0 0.00 0.00 0.00 69 1023.1
20181018033016 48 104 17.0 32.0 0.00 0.00 0.00 69 1023.0